Regional Weather Roundup
Issued by NWS Little Rock, AR

Home | Current Version | Previous Version | Graphics & Text | Print | Product List | Glossary On
Versions: 1 2 3 4 5 6 7 8 9 10 11 12 13 14 15 16 17 18 19 20 21 22 23 24 25 26 27 28 29 30 31 32 33 34 35 36 37 38 39 40 41 42 43 44 45 46 47 48 49 50
000
ASUS44 KLZK 062305
RWRLZK

WEATHER ROUNDUP FOR ARKANSAS
NATIONAL WEATHER SERVICE LITTLE ROCK AR
500 PM CST SAT FEB 06 2016

NOTE: "FAIR" INDICATES FEW OR NO CLOUDS BELOW 12,000 FEET WITH NO
SIGNIFICANT WEATHER AND/OR OBSTRUCTIONS TO VISIBILITY.

ARZ001-003-010-029-070000-
NORTHWEST ARKANSAS

CITY           SKY/WX    TMP DP  RH WIND       PRES   REMARKS
FAYETTEVILLE   CLEAR     51  25  36 W9        30.26F
FORT SMITH     CLEAR     55  17  22 W3        30.29F
HARRISON       CLEAR     52  22  30 W6        30.25S
BENTONVILLE    CLEAR     52  25  35 SW9       30.26F
ROGERS         PTCLDY    51  27  39 SW7       30.26S
SILOAM SPGS    PTCLDY    52  25  35 SW8       30.27S
HIGHFILL       PTCLDY    52  28  39 SW8       30.25F
SPRINGDALE     CLEAR     52  25  35 SW8G14    30.27F
$$

ARZ004-005-016-070000-
NORTH CENTRAL ARKANSAS

CITY           SKY/WX    TMP DP  RH WIND       PRES   REMARKS
BATESVILLE     CLEAR     54  16  22 CALM      30.29F
FLIPPIN        CLEAR     54  18  24 SW5       30.24F
MTN HOME       CLEAR     52  17  25 S7        30.25S
$$

ARZ040-041-070000-
WEST CENTRAL ARKANSAS

CITY           SKY/WX    TMP DP  RH WIND       PRES   REMARKS
MENA           CLEAR     55  21  26 CALM      30.28S
MOUNT IDA      CLEAR     56  16  20 CALM      30.26S
$$

ARZ009-017-025-026-028-070000-
NORTHEAST ARKANSAS

CITY           SKY/WX    TMP DP  RH WIND       PRES   REMARKS
CORNING        FAIR      50  23  34 S9        30.29S
JONESBORO      CLEAR     49  23  36 SW7       30.30S
NEWPORT        CLEAR     52  22  31 S6        30.31S
WALNUT RIDGE   CLEAR     52  19  28 S8        30.30S
BLYTHEVILLE    CLEAR     54  25  32 SW6       30.30S
$$

ARZ022-023-033-042-044-070000-
CENTRAL ARKANSAS

CITY           SKY/WX    TMP DP  RH WIND       PRES   REMARKS
LITTLE ROCK    CLEAR     54  21  27 CALM      30.30S
N LITTLE ROCK  CLEAR     53  21  28 CALM      30.30S
JACKSONVILLE   CLEAR     54  21  26 E6        30.29S
SEARCY         CLEAR     53  23  31 CALM      30.32R
HOT SPRINGS    CLEAR     55  18  23 W5        30.29S
RUSSELLVILLE   CLEAR     54  14  20 SE5       30.28F
CLINTON        FAIR      54  18  24 CALM      30.29S
$$

ARZ036-070000-
EAST ARKANSAS

CITY           SKY/WX    TMP DP  RH WIND       PRES   REMARKS
WEST MEMPHIS   CLEAR     50  22  33 CALM      30.30F
$$

ARZ050-053-066-070-073-070000-
SOUTHWEST ARKANSAS

CITY           SKY/WX    TMP DP  RH WIND       PRES   REMARKS
ARKADELPHIA    FAIR      56  24  29 CALM      30.31S
CAMDEN         CLEAR     57  18  21 NW3       30.30R
TEXARKANA      CLEAR     54  24  31 E3        30.30F
EL DORADO      CLEAR     55  21  26 CALM      30.30R
DE QUEEN       CLEAR     56  23  27 W7        30.28S
$$

ARZ056-057-069-070000-
SOUTHEAST ARKANSAS

CITY           SKY/WX    TMP DP  RH WIND       PRES   REMARKS
PINE BLUFF     CLEAR     53  23  31 NE5       30.30S
STUTTGART      CLEAR     54  19  26 CALM      30.32S
MONTICELLO     CLEAR     55  22  27 E7        30.29S

$$





USA.gov is the U.S. government's official web portal to all federal, state and local government web resources and services.